z/d,0,0,50,50,100,100,200,200,300,300,400,400,500,500,750,750,1000,1000,2000,2000,3000,3000,4000,4000,4700,4700
2016.10.12-01:00,.39,79.24,.37,86.68,.49,66.52,.86,77.19,.98,70.66,.83,70.52,.78,76.26,.50,75.94,.32,77.24,.08,59.21,.07,63.68,.09,17.66,.01,270.00
2016.10.12-02:00,.37,79.63,.33,80.43,.52,64.51,.86,76.41,1.01,69.29,.87,68.41,.80,74.85,.52,77.96,.34,81.18,.08,59.99,.07,66.17,.10,20.17,.01,270.00
2016.10.12-03:00,.36,79.80,.31,74.17,.55,64.95,.86,75.95,1.06,69.30,.93,67.75,.83,74.20,.54,79.65,.36,84.02,.08,57.35,.08,66.39,.10,25.48,.01,270.00
2016.10.12-04:00,.35,81.42,.30,67.51,.56,65.59,.86,75.62,1.10,70.47,.98,68.42,.87,74.34,.56,80.79,.38,85.64,.09,53.98,.09,66.33,.12,31.63,.00,270.00
2016.10.12-05:00,.33,81.41,.30,60.20,.57,65.44,.86,75.12,1.13,72.36,1.02,69.75,.89,74.86,.58,81.21,.40,86.22,.10,52.28,.10,65.98,.13,37.02,.00,90.00
2016.10.12-06:00,.31,81.65,.32,54.23,.59,65.25,.86,74.55,1.15,74.60,1.04,71.20,.90,75.35,.59,81.00,.41,86.26,.12,51.43,.11,64.30,.15,39.73,.00,90.00
2016.10.12-07:00,.29,81.71,.35,50.15,.61,65.84,.87,74.29,1.15,77.07,1.04,72.55,.90,75.84,.58,80.80,.41,86.60,.13,50.99,.12,61.70,.16,40.60,.01,90.00
2016.10.12-08:00,.25,78.61,.35,46.80,.59,67.44,.86,74.65,1.11,79.71,1.02,73.82,.86,76.44,.57,81.17,.40,87.59,.15,50.45,.13,58.79,.17,41.04,.01,90.00
2016.10.12-09:00,.22,77.59,.38,44.68,.59,68.67,.86,74.63,1.05,81.12,.99,74.47,.83,76.48,.54,81.28,.37,88.74,.15,49.51,.13,56.72,.17,41.17,.01,90.00
2016.10.12-10:00,.19,73.44,.42,43.06,.60,69.81,.85,74.37,1.00,81.29,.97,74.76,.80,76.23,.51,81.52,.33,90.34,.14,47.87,.12,54.89,.16,40.61,.00,90.00
2016.10.12-11:00,.15,56.34,.45,41.92,.60,71.26,.85,74.11,.95,80.53,.95,74.88,.78,75.89,.48,82.04,.29,92.41,.13,46.51,.11,53.75,.14,39.50,.00,90.00
2016.10.12-12:00,.13,38.14,.48,41.77,.59,72.80,.84,73.83,.92,79.13,.94,74.69,.77,75.19,.45,82.26,.26,94.08,.12,46.61,.10,53.08,.12,36.98,.01,270.00
2016.10.12-13:00,.15,18.96,.51,41.71,.56,73.33,.83,73.41,.89,77.45,.93,74.30,.76,74.35,.43,82.54,.24,95.47,.11,49.50,.08,51.61,.10,30.58,.01,270.00
2016.10.12-14:00,.20,6.28,.53,42.25,.53,72.63,.83,73.25,.88,75.96,.93,73.94,.77,73.65,.43,83.02,.23,96.11,.11,55.88,.08,50.14,.09,21.84,.02,270.00
2016.10.12-15:00,.26,8.25,.55,44.99,.51,71.44,.82,73.88,.87,74.92,.94,73.68,.79,73.09,.44,83.10,.24,95.06,.11,62.49,.08,49.60,.09,15.68,.02,270.00
2016.10.12-16:00,.34,16.38,.56,49.66,.51,70.05,.82,75.14,.87,74.10,.94,73.50,.81,72.76,.45,82.40,.24,91.83,.11,67.50,.09,51.94,.10,16.58,.02,270.00
2016.10.12-17:00,.38,24.00,.57,54.21,.51,68.15,.83,76.26,.88,73.04,.95,73.29,.83,72.64,.46,80.51,.25,86.04,.12,70.76,.10,56.78,.11,22.73,.01,270.00
2016.10.12-18:00,.42,33.63,.58,57.65,.53,66.05,.82,76.87,.89,71.80,.96,73.18,.84,72.78,.47,77.48,.26,78.53,.13,72.62,.12,62.06,.12,29.87,.01,270.00
2016.10.12-19:00,.47,40.39,.59,59.63,.55,63.67,.81,76.78,.90,70.53,.97,73.10,.86,72.95,.48,73.82,.28,71.51,.13,73.81,.13,66.72,.13,35.23,.00,270.00
2016.10.12-20:00,.51,45.37,.60,60.65,.57,61.27,.79,76.13,.91,69.43,.97,72.97,.86,72.98,.49,70.71,.31,67.68,.13,75.35,.13,70.37,.14,37.43,.00,90.00
2016.10.12-21:00,.52,50.75,.59,61.49,.59,59.45,.78,75.11,.92,68.55,.96,72.67,.85,72.85,.50,69.02,.33,67.70,.12,77.55,.12,72.50,.14,35.93,.00,90.00
2016.10.12-22:00,.55,53.94,.58,62.70,.61,59.08,.76,73.75,.94,67.79,.95,72.08,.84,72.47,.51,68.35,.34,70.05,.10,80.26,.11,73.24,.13,31.69,.00,90.00
2016.10.12-23:00,.58,57.08,.58,64.16,.64,60.64,.76,72.42,.95,67.48,.94,71.54,.82,72.14,.51,68.62,.33,73.86,.08,85.02,.08,74.33,.12,26.24,.00,270.00
2016.10.12-24:00,.59,60.38,.58,64.84,.66,63.35,.77,71.37,.97,67.78,.94,71.35,.81,72.01,.50,69.99,.32,78.64,.06,90.80,.06,74.36,.11,20.33,.01,270.00
2016.10.13-01:00,.57,64.33,.58,65.06,.68,66.85,.78,71.08,.99,68.82,.94,71.75,.81,72.14,.51,72.33,.32,83.74,.04,96.39,.04,71.79,.10,15.58,.01,270.00
2016.10.13-02:00,.55,69.77,.59,65.47,.69,70.76,.80,71.65,1.00,70.46,.95,72.66,.81,72.46,.51,74.91,.32,87.91,.03,94.48,.03,65.31,.10,15.15,.01,270.00
2016.10.13-03:00,.56,71.97,.60,66.04,.69,74.22,.81,72.78,1.01,72.41,.97,73.97,.83,73.02,.53,77.28,.33,90.58,.03,72.43,.04,56.74,.10,19.94,.01,270.00
2016.10.13-04:00,.56,74.26,.61,66.21,.68,76.34,.82,73.96,1.02,74.38,.98,75.45,.85,73.89,.55,79.38,.34,92.18,.04,55.87,.05,51.90,.11,27.01,.00,270.00
2016.10.13-05:00,.54,77.76,.62,66.12,.67,77.11,.83,74.99,1.03,76.23,.99,76.82,.86,74.90,.56,81.05,.35,92.71,.07,52.67,.07,50.97,.13,33.93,.00,90.00
2016.10.13-06:00,.51,80.71,.63,65.99,.67,77.02,.83,75.91,1.02,77.93,.99,77.82,.87,75.72,.57,82.16,.35,92.17,.10,53.01,.10,51.40,.15,39.08,.01,90.00
2016.10.13-07:00,.49,81.50,.64,65.85,.66,76.46,.83,76.55,1.02,79.29,.98,78.19,.88,76.04,.57,82.68,.35,90.85,.12,54.22,.13,52.42,.16,42.47,.01,90.00
2016.10.13-08:00,.48,80.27,.65,66.18,.66,75.80,.83,76.75,1.00,80.12,.97,77.83,.87,75.67,.57,82.55,.35,88.97,.15,55.75,.14,53.65,.17,44.34,.01,90.00
2016.10.13-09:00,.47,79.15,.68,66.99,.67,75.29,.83,76.52,.98,80.40,.95,77.00,.85,74.86,.54,82.10,.33,87.24,.16,57.58,.15,54.86,.17,44.65,.01,90.00
2016.10.13-10:00,.46,79.01,.70,68.05,.68,74.91,.82,75.92,.94,80.21,.92,75.99,.83,73.91,.51,81.50,.31,85.99,.16,59.99,.14,56.11,.15,43.31,.01,90.00
2016.10.13-11:00,.43,81.28,.71,69.19,.68,74.63,.80,75.01,.89,79.56,.89,74.92,.81,72.92,.47,80.76,.28,85.37,.15,63.88,.13,57.62,.13,39.68,.00,270.00
2016.10.13-12:00,.43,82.90,.73,70.57,.67,74.30,.78,73.94,.84,78.49,.86,73.86,.79,72.06,.44,80.14,.25,85.69,.13,70.45,.11,59.36,.11,32.25,.01,270.00
2016.10.13-13:00,.43,83.30,.74,72.85,.67,74.35,.78,73.30,.81,77.26,.85,72.94,.78,71.51,.41,79.90,.24,86.90,.11,80.31,.09,60.98,.10,20.16,.02,270.00
2016.10.13-14:00,.45,84.21,.74,76.02,.67,74.91,.77,73.50,.78,76.13,.84,72.26,.77,71.39,.40,80.18,.23,88.98,.10,92.34,.07,62.11,.09,7.80,.02,270.00
2016.10.13-15:00,.47,82.80,.74,78.85,.66,75.10,.78,74.19,.77,74.89,.84,71.64,.78,71.46,.39,80.19,.24,90.70,.09,103.05,.06,63.33,.10,2.12,.02,270.00
2016.10.13-16:00,.48,81.98,.72,80.86,.67,74.93,.79,75.49,.78,73.98,.86,71.52,.80,72.00,.40,79.52,.25,91.09,.10,108.94,.06,64.68,.11,5.05,.02,270.00
2016.10.13-17:00,.49,80.82,.70,82.12,.68,74.86,.81,77.39,.80,73.82,.88,72.14,.82,73.10,.42,77.76,.27,89.23,.10,109.17,.08,66.14,.12,13.94,.01,270.00
2016.10.13-18:00,.50,80.26,.68,82.34,.69,74.69,.83,79.35,.83,74.21,.91,73.30,.85,74.52,.44,75.05,.28,85.11,.10,104.97,.10,67.55,.14,24.19,.00,270.00
2016.10.13-19:00,.50,78.96,.66,81.87,.71,74.64,.85,81.12,.87,74.98,.93,74.72,.87,75.96,.47,72.02,.29,79.78,.10,98.12,.12,68.85,.16,32.52,.01,90.00
2016.10.13-20:00,.51,76.54,.65,81.39,.72,75.04,.85,82.56,.89,75.87,.94,76.08,.87,77.17,.49,69.64,.31,75.27,.10,90.25,.13,69.46,.17,37.53,.01,90.00
2016.10.13-21:00,.53,75.15,.63,80.91,.73,75.77,.83,83.21,.89,76.39,.93,76.96,.86,77.77,.52,68.48,.32,73.41,.09,83.93,.13,69.12,.18,39.00,.02,90.00
2016.10.13-22:00,.55,75.11,.63,80.52,.74,76.80,.81,82.83,.88,76.38,.91,77.21,.83,77.55,.53,68.48,.33,74.27,.09,80.62,.11,67.79,.17,37.41,.01,90.00
2016.10.13-23:00,.56,76.93,.64,80.06,.75,77.97,.78,81.58,.87,76.18,.88,77.05,.79,76.68,.53,69.55,.33,77.08,.08,80.28,.09,64.83,.15,33.34,.01,90.00
2016.10.13-24:00,.59,78.61,.66,79.88,.76,79.31,.77,79.98,.86,76.23,.85,76.77,.76,75.47,.52,71.59,.32,81.20,.06,83.85,.07,58.96,.13,27.33,.00,90.00
2016.10.14-01:00,.61,79.58,.68,80.42,.78,80.90,.77,78.68,.85,76.84,.83,76.61,.73,74.28,.49,74.39,.30,86.06,.05,92.95,.04,46.82,.11,20.19,.00,270.00
2016.10.14-02:00,.61,80.78,.69,81.73,.78,82.62,.78,78.02,.85,77.94,.82,76.62,.72,73.27,.48,77.28,.28,90.50,.04,106.36,.03,28.70,.10,14.34,.01,270.00
2016.10.14-03:00,.60,82.17,.68,83.10,.77,83.93,.79,77.89,.86,79.17,.83,76.75,.73,72.62,.47,79.75,.28,93.68,.04,115.03,.03,20.55,.09,13.11,.01,270.00
2016.10.14-04:00,.57,84.37,.66,83.78,.74,84.44,.80,78.28,.86,80.45,.84,77.29,.76,72.76,.47,81.79,.29,95.56,.05,110.29,.04,28.88,.09,18.19,.01,270.00
2016.10.14-05:00,.54,86.14,.62,83.20,.71,83.90,.81,79.11,.87,81.68,.87,78.33,.80,73.76,.49,83.07,.30,95.87,.06,97.09,.06,40.80,.10,27.07,.01,270.00
2016.10.14-06:00,.51,87.24,.60,81.51,.70,82.44,.83,80.20,.88,82.80,.89,79.89,.84,75.48,.52,83.42,.32,94.84,.08,85.23,.09,48.84,.12,35.15,.00,270.00
2016.10.14-07:00,.50,87.05,.61,79.45,.70,80.34,.85,80.84,.88,83.39,.91,81.66,.86,77.41,.53,82.83,.33,93.00,.11,78.68,.12,53.99,.14,40.70,.00,90.00
2016.10.14-08:00,.50,86.67,.63,77.89,.71,77.95,.85,80.38,.88,83.06,.91,83.26,.87,78.98,.53,81.48,.33,90.75,.14,76.48,.15,57.65,.16,43.68,.01,90.00
2016.10.14-09:00,.49,87.50,.65,77.41,.72,75.99,.85,78.90,.87,81.94,.89,84.42,.85,79.84,.53,80.02,.32,88.60,.15,76.75,.17,60.35,.17,44.16,.01,90.00
2016.10.14-10:00,.47,89.59,.67,77.72,.74,74.89,.86,76.98,.87,80.47,.86,84.99,.82,79.90,.52,79.18,.31,87.03,.16,78.72,.16,62.62,.17,42.27,.01,90.00
2016.10.14-11:00,.44,91.05,.69,78.39,.77,74.81,.87,75.22,.87,79.19,.82,84.90,.79,79.31,.49,79.27,.29,86.30,.14,82.85,.15,64.59,.15,37.31,.00,90.00
2016.10.14-12:00,.40,91.22,.70,79.41,.78,75.64,.87,74.03,.87,78.43,.78,84.13,.75,78.27,.47,80.07,.26,86.47,.13,90.77,.12,66.56,.13,28.38,.01,270.00
2016.10.14-13:00,.36,90.33,.70,80.56,.79,76.81,.88,73.42,.87,78.22,.74,82.63,.72,76.99,.43,81.29,.24,87.87,.11,103.72,.08,68.25,.11,15.22,.02,270.00
2016.10.14-14:00,.34,90.30,.70,81.87,.79,78.00,.89,73.48,.87,78.49,.72,80.53,.71,75.70,.41,82.64,.23,90.59,.10,120.13,.05,68.66,.11,2.07,.02,270.00
2016.10.14-15:00,.34,88.47,.68,83.34,.78,79.13,.90,74.25,.89,79.05,.72,78.10,.72,74.62,.39,83.67,.23,93.64,.10,134.15,.04,65.42,.11,355.76,.02,270.00
2016.10.14-16:00,.34,84.29,.65,84.71,.77,80.18,.93,75.69,.91,79.88,.74,76.00,.74,74.20,.39,84.01,.24,95.56,.10,141.14,.04,58.44,.12,358.85,.02,270.00
2016.10.14-17:00,.34,82.96,.63,85.80,.77,81.17,.96,77.60,.94,80.95,.78,74.70,.78,74.62,.40,83.19,.25,95.21,.09,140.28,.05,56.06,.13,9.18,.01,270.00
2016.10.14-18:00,.34,80.87,.62,86.43,.77,81.96,.99,79.53,.97,81.98,.83,74.09,.82,75.46,.42,80.78,.27,92.08,.09,131.74,.08,58.03,.15,22.36,.00,90.00
2016.10.14-19:00,.33,79.69,.61,86.84,.77,82.65,1.01,81.24,.99,82.83,.87,73.97,.86,76.50,.44,77.29,.28,86.79,.09,117.83,.11,60.49,.17,33.61,.02,90.00
2016.10.14-20:00,.33,79.82,.62,86.87,.78,83.22,1.01,82.49,1.01,83.30,.92,74.16,.89,77.74,.48,73.83,.30,81.02,.09,102.96,.13,62.39,.19,41.25,.03,90.00
2016.10.14-21:00,.33,79.14,.62,86.04,.78,83.53,1.00,83.05,1.00,83.24,.94,74.55,.90,79.24,.51,71.41,.32,76.84,.10,91.11,.15,63.33,.21,45.37,.03,90.00
2016.10.14-22:00,.33,76.50,.62,84.46,.78,83.64,.98,82.90,.99,82.58,.96,75.10,.89,80.96,.53,70.54,.33,75.58,.10,83.96,.14,62.93,.20,46.10,.03,90.00
2016.10.14-23:00,.34,73.15,.63,82.52,.77,83.51,.95,81.96,.96,81.16,.96,75.52,.86,82.44,.53,71.05,.34,77.24,.10,81.35,.13,61.13,.18,43.62,.02,90.00
2016.10.14-24:00,.34,71.20,.63,80.91,.75,83.18,.92,80.49,.93,79.11,.95,75.70,.81,83.26,.52,72.58,.34,81.19,.09,83.40,.10,58.07,.15,38.04,.01,90.00
2016.10.15-01:00,.35,72.70,.64,80.79,.73,83.05,.90,79.24,.92,77.02,.94,75.98,.76,83.26,.50,74.82,.33,86.70,.08,90.77,.07,52.05,.11,28.02,.00,270.00
2016.10.15-02:00,.35,76.78,.65,82.09,.72,83.01,.90,78.51,.92,75.20,.94,76.37,.73,82.32,.48,77.44,.31,93.00,.07,104.94,.04,39.65,.09,13.46,.01,270.00
2016.10.15-03:00,.32,81.41,.64,83.76,.69,82.63,.89,78.13,.93,73.55,.95,76.65,.71,80.52,.47,80.02,.30,99.22,.07,120.82,.03,24.67,.08,1.74,.02,270.00
2016.10.15-04:00,.28,88.75,.63,86.23,.68,82.76,.90,78.90,.96,73.14,.97,77.83,.72,79.44,.47,83.02,.30,104.97,.07,128.93,.03,19.29,.08,358.74,.02,270.00
2016.10.15-05:00,.23,97.82,.61,88.31,.68,83.08,.92,80.43,1.00,73.84,1.00,79.79,.75,79.55,.48,85.77,.30,108.93,.08,127.79,.05,29.18,.09,6.01,.02,270.00
2016.10.15-06:00,.16,104.86,.57,88.36,.67,82.50,.92,81.46,1.04,74.52,1.02,81.51,.78,80.06,.50,86.79,.30,109.63,.10,120.91,.08,42.45,.11,19.20,.01,270.00
2016.10.15-07:00,.11,106.72,.55,87.20,.68,81.69,.93,81.81,1.08,75.17,1.04,82.94,.82,80.81,.52,86.08,.29,106.78,.12,112.23,.11,51.53,.14,31.10,.00,270.00
2016.10.15-08:00,.10,104.06,.57,87.06,.71,82.22,.94,82.00,1.11,76.31,1.04,84.50,.84,81.97,.53,84.79,.29,101.31,.13,104.16,.15,56.18,.17,37.94,.01,90.00
2016.10.15-09:00,.10,100.83,.59,88.08,.75,83.68,.95,81.78,1.14,77.54,1.03,85.82,.85,82.97,.54,83.53,.28,94.76,.14,98.33,.17,59.09,.18,41.00,.01,90.00
2016.10.15-10:00,.09,92.91,.60,88.88,.76,84.91,.94,80.53,1.14,78.21,.99,86.27,.83,83.10,.54,82.53,.28,88.82,.15,96.19,.17,61.65,.19,41.42,.01,90.00
2016.10.15-11:00,.07,74.99,.60,89.21,.76,85.89,.93,78.60,1.13,78.54,.95,85.94,.80,82.48,.53,82.47,.27,85.33,.14,98.10,.16,63.69,.17,38.59,.01,90.00
2016.10.15-12:00,.08,46.19,.58,88.74,.75,86.67,.92,76.67,1.11,78.96,.90,85.14,.77,81.57,.50,83.83,.26,85.17,.13,104.56,.13,65.21,.15,31.92,.00,90.00
2016.10.15-13:00,.11,23.85,.56,86.89,.73,87.17,.93,75.31,1.10,79.67,.87,84.02,.75,80.64,.47,86.53,.25,88.31,.10,117.28,.10,66.57,.13,21.40,.01,270.00
2016.10.15-14:00,.15,10.99,.52,83.51,.71,87.53,.94,74.74,1.09,80.67,.85,82.56,.74,79.62,.44,89.83,.24,93.66,.09,136.53,.06,68.70,.11,9.44,.01,270.00
2016.10.15-15:00,.20,4.70,.48,79.08,.68,88.07,.95,75.20,1.08,82.05,.84,80.87,.74,78.46,.41,92.70,.23,99.28,.08,154.99,.03,72.08,.11,.87,.02,270.00
2016.10.15-16:00,.24,2.24,.46,74.36,.66,88.58,.96,76.59,1.07,83.72,.85,79.14,.75,77.35,.39,94.31,.23,103.46,.09,163.84,.02,73.44,.11,.84,.01,270.00
2016.10.15-17:00,.26,4.68,.46,70.91,.64,88.76,.98,78.70,1.07,85.51,.87,77.65,.78,76.83,.38,94.12,.23,104.84,.08,161.12,.03,67.33,.11,10.20,.01,270.00
2016.10.15-18:00,.29,11.95,.47,70.13,.64,88.72,1.01,81.49,1.07,87.25,.90,76.78,.83,77.45,.38,91.88,.24,102.47,.08,147.64,.06,62.09,.13,23.06,.00,90.00
2016.10.15-19:00,.31,19.68,.50,70.45,.65,88.13,1.02,84.28,1.06,88.52,.94,76.38,.87,78.90,.40,87.60,.25,96.44,.09,126.04,.09,60.30,.16,33.99,.02,90.00
2016.10.15-20:00,.35,26.83,.54,71.22,.66,87.21,1.02,86.50,1.03,89.09,.97,76.21,.91,80.66,.43,82.43,.27,88.71,.10,105.93,.13,59.88,.19,41.41,.03,90.00
2016.10.15-21:00,.38,33.91,.58,72.63,.68,86.35,1.00,87.79,1.00,88.82,.99,76.17,.92,82.41,.46,78.10,.30,82.22,.13,93.16,.16,59.45,.21,45.64,.03,90.00
2016.10.15-22:00,.41,40.41,.62,74.44,.68,85.45,.97,87.75,.95,87.42,.99,76.00,.91,83.85,.49,75.45,.32,78.31,.14,86.42,.17,58.84,.22,47.53,.03,90.00
2016.10.15-23:00,.42,46.17,.65,76.57,.68,84.47,.93,86.39,.91,84.75,1.00,75.66,.88,85.01,.51,74.71,.34,77.09,.15,83.98,.16,57.61,.20,46.97,.03,90.00
2016.10.15-24:00,.42,51.36,.67,78.99,.68,83.65,.89,84.22,.87,81.06,.99,75.37,.85,86.06,.51,75.72,.34,78.45,.14,85.29,.14,54.99,.17,43.07,.02,90.00
2016.10.16-01:00,.40,55.64,.68,81.36,.67,82.97,.86,81.75,.85,76.82,.99,75.26,.81,86.83,.50,77.96,.34,82.36,.12,91.64,.11,50.13,.13,34.21,.00,90.00
2016.10.16-02:00,.36,59.60,.66,83.66,.65,82.48,.85,79.48,.86,72.86,1.00,75.51,.78,87.07,.48,80.76,.33,88.55,.10,105.44,.07,41.41,.10,18.57,.01,270.00
2016.10.16-03:00,.32,63.93,.63,86.19,.64,82.50,.85,77.98,.89,70.13,1.01,76.32,.76,86.78,.46,83.41,.31,96.21,.09,125.53,.05,28.27,.09,.56,.02,270.00
2016.10.16-04:00,.25,67.00,.58,89.17,.61,82.93,.85,77.44,.93,68.97,1.03,77.71,.74,86.17,.44,85.40,.30,104.20,.10,142.20,.04,21.77,.09,352.79,.03,270.00
2016.10.16-05:00,.15,65.10,.51,92.10,.58,83.20,.86,77.75,.98,69.36,1.04,79.63,.75,85.67,.42,86.59,.29,111.19,.11,148.83,.05,30.87,.10,358.20,.02,270.00
2016.10.16-06:00,.08,41.01,.44,93.66,.57,82.75,.88,78.77,1.04,71.05,1.06,81.95,.76,85.53,.42,86.85,.29,115.64,.12,147.08,.07,43.93,.12,10.59,.02,270.00
2016.10.16-07:00,.09,342.98,.39,91.80,.56,81.04,.90,79.95,1.09,73.35,1.08,84.16,.78,85.42,.44,85.73,.28,116.21,.12,138.99,.11,53.78,.15,23.81,.01,270.00
2016.10.16-08:00,.15,329.37,.36,86.41,.57,78.76,.92,81.02,1.12,75.93,1.08,86.05,.79,85.13,.47,83.72,.26,112.46,.13,127.27,.15,59.87,.18,33.60,.01,90.00
2016.10.16-09:00,.21,330.04,.37,80.37,.61,76.90,.93,81.76,1.15,78.43,1.07,87.40,.80,84.46,.50,81.80,.25,105.06,.13,115.49,.17,63.64,.20,39.36,.02,90.00
2016.10.16-10:00,.27,330.46,.38,75.65,.63,75.59,.93,81.92,1.15,80.47,1.04,88.15,.79,83.39,.52,80.76,.24,96.13,.13,106.05,.19,66.12,.21,42.08,.02,90.00
2016.10.16-11:00,.32,332.41,.39,71.21,.64,74.62,.91,81.34,1.13,81.90,1.00,88.30,.77,82.00,.54,81.10,.24,88.61,.13,100.53,.18,67.77,.21,42.12,.02,90.00
2016.10.16-12:00,.38,332.70,.40,65.62,.64,73.53,.89,79.93,1.09,82.62,.94,87.71,.74,80.18,.54,82.74,.24,83.95,.11,99.29,.15,69.15,.19,39.84,.02,90.00
2016.10.16-13:00,.44,334.56,.41,56.80,.64,72.25,.87,78.09,1.05,82.83,.88,86.41,.72,78.13,.52,85.55,.23,82.59,.09,103.84,.12,70.47,.16,34.63,.01,90.00
2016.10.16-14:00,.50,339.06,.44,47.67,.63,70.69,.86,76.38,1.02,82.84,.84,84.57,.71,76.23,.49,89.16,.22,84.43,.07,117.62,.07,71.50,.12,25.04,.00,90.00
2016.10.16-15:00,.55,343.95,.48,40.95,.63,69.14,.86,75.28,.99,82.95,.81,82.49,.71,74.74,.45,92.87,.21,88.39,.06,138.43,.04,69.34,.10,12.36,.01,270.00
2016.10.16-16:00,.58,348.33,.52,39.16,.62,68.67,.86,75.15,.97,83.39,.80,80.41,.72,73.71,.42,95.67,.21,92.74,.07,151.97,.02,49.27,.09,4.65,.01,270.00
2016.10.16-17:00,.58,354.23,.55,43.32,.63,70.41,.87,76.20,.96,84.21,.81,78.58,.75,73.33,.38,96.40,.21,95.51,.07,152.09,.02,27.81,.10,7.18,.01,270.00
2016.10.16-18:00,.57,4.46,.56,49.66,.64,73.18,.89,78.06,.96,85.34,.84,77.48,.80,73.95,.36,94.32,.22,95.41,.08,140.64,.04,34.77,.11,16.82,.00,270.00
2016.10.16-19:00,.58,11.41,.57,53.66,.65,74.69,.91,79.80,.96,86.41,.88,76.95,.85,75.10,.36,89.50,.24,92.43,.09,123.10,.08,43.45,.14,27.94,.01,90.00
2016.10.16-20:00,.61,15.28,.58,54.58,.65,74.23,.92,80.87,.96,87.05,.92,76.47,.90,76.17,.38,83.09,.27,87.32,.12,108.06,.13,50.07,.18,37.19,.02,90.00
2016.10.16-21:00,.65,18.78,.59,54.31,.65,72.59,.92,81.29,.94,86.98,.94,75.78,.93,77.06,.42,77.20,.30,81.65,.15,98.59,.17,54.38,.21,43.17,.03,90.00
2016.10.16-22:00,.70,24.02,.62,54.96,.65,71.13,.91,81.26,.91,85.92,.96,74.92,.95,77.96,.46,73.38,.33,77.40,.17,93.34,.20,56.67,.23,45.82,.03,90.00
2016.10.16-23:00,.73,30.45,.64,56.70,.66,70.13,.89,80.53,.88,83.51,.98,74.03,.95,79.03,.50,71.80,.36,75.58,.18,91.20,.20,57.60,.23,45.69,.03,90.00
2016.10.16-24:00,.75,37.28,.66,59.46,.65,69.50,.86,78.87,.84,79.75,.98,73.40,.93,80.40,.52,72.13,.37,76.36,.17,91.69,.19,57.39,.21,42.83,.02,90.00
2016.10.17-01:00,.76,43.61,.68,62.49,.65,68.58,.83,75.93,.82,74.95,.98,73.09,.90,81.87,.52,73.95,.37,79.77,.15,95.69,.16,56.15,.18,36.94,.01,90.00
2016.10.17-02:00,.76,49.36,.69,65.37,.64,67.23,.82,72.10,.83,70.26,.98,73.31,.87,83.32,.51,76.89,.36,85.56,.12,105.42,.12,53.54,.15,27.20,.00,270.00
2016.10.17-03:00,.74,54.35,.69,68.11,.64,65.90,.82,68.58,.85,67.09,.98,74.37,.84,84.85,.49,80.38,.35,93.12,.09,123.23,.08,48.12,.12,13.88,.01,270.00
2016.10.17-04:00,.70,58.27,.66,70.53,.63,64.56,.83,66.07,.89,65.84,.98,76.15,.81,86.39,.47,83.73,.33,101.62,.08,145.00,.06,39.43,.11,2.25,.02,270.00
2016.10.17-05:00,.62,61.35,.61,72.93,.61,63.38,.84,64.76,.92,66.14,.98,78.24,.79,87.63,.44,85.79,.31,109.58,.09,157.33,.05,36.24,.11,.41,.02,270.00
2016.10.17-06:00,.52,64.35,.54,75.42,.59,63.00,.87,65.13,.97,68.02,.99,80.58,.77,88.37,.42,85.79,.29,115.87,.09,157.73,.06,43.71,.12,8.59,.01,270.00
2016.10.17-07:00,.44,65.35,.49,76.20,.59,62.89,.91,66.90,1.02,71.01,1.00,82.83,.76,88.34,.41,84.08,.26,119.38,.10,148.93,.09,52.05,.15,20.75,.00,270.00
2016.10.17-08:00,.37,61.05,.44,73.82,.60,62.38,.96,69.15,1.07,74.15,1.01,84.49,.76,87.28,.42,81.33,.23,118.21,.10,133.21,.13,57.63,.18,31.56,.01,90.00
2016.10.17-09:00,.32,49.14,.42,69.37,.63,61.90,.99,71.28,1.10,76.85,1.01,85.33,.76,85.05,.44,78.15,.21,110.25,.10,115.16,.17,61.71,.21,39.60,.02,90.00
2016.10.17-10:00,.38,32.92,.42,64.72,.65,61.64,1.01,73.03,1.10,78.86,.99,85.38,.75,81.97,.48,75.89,.20,96.58,.11,99.95,.19,64.63,.22,44.56,.03,90.00
2016.10.17-11:00,.46,22.61,.44,59.54,.67,60.72,1.01,73.99,1.08,79.95,.96,84.68,.75,78.76,.53,75.41,.21,83.52,.12,89.49,.19,66.71,.22,46.63,.03,90.00
2016.10.17-12:00,.59,16.18,.46,53.85,.69,59.02,1.00,74.23,1.04,80.18,.92,83.35,.75,76.12,.56,76.73,.23,75.28,.12,84.16,.17,68.48,.20,45.97,.03,90.00
2016.10.17-13:00,.73,14.88,.51,49.30,.71,57.41,.98,74.17,1.00,79.70,.88,81.44,.75,74.23,.57,79.31,.25,71.20,.11,83.23,.14,69.56,.17,41.23,.02,90.00
2016.10.17-14:00,.85,17.37,.56,46.75,.74,56.57,.96,73.96,.97,78.66,.85,79.27,.75,73.24,.56,82.97,.25,71.19,.09,88.39,.09,69.59,.13,30.20,.00,90.00
2016.10.17-15:00,.94,22.00,.62,45.98,.77,56.66,.95,73.57,.95,77.34,.84,77.35,.76,73.05,.53,87.40,.25,74.93,.07,101.97,.04,64.01,.10,11.15,.01,270.00
2016.10.17-16:00,.99,28.84,.68,47.42,.80,58.24,.94,73.40,.95,76.33,.84,76.10,.76,73.34,.49,91.95,.25,81.17,.07,120.85,.02,15.79,.10,354.10,.02,270.00
2016.10.17-17:00,.97,38.84,.72,51.47,.82,61.72,.93,73.72,.95,75.95,.85,75.44,.77,73.55,.45,95.45,.25,87.86,.07,132.72,.02,339.31,.10,351.71,.02,270.00
2016.10.17-18:00,.97,46.30,.75,57.78,.84,66.91,.93,74.68,.97,76.43,.88,75.20,.79,73.51,.40,96.39,.24,92.45,.09,133.10,.04,2.83,.12,2.18,.01,270.00
2016.10.17-19:00,.98,53.54,.77,64.32,.87,72.41,.95,76.10,1.00,77.71,.91,75.40,.82,73.65,.37,93.84,.25,93.45,.10,125.82,.07,26.16,.14,16.95,.00,270.00
2016.10.17-20:00,.95,64.87,.78,69.79,.89,77.18,.98,77.65,1.04,79.41,.96,75.76,.87,74.19,.36,88.49,.27,90.67,.12,115.62,.11,39.05,.18,29.35,.01,90.00
2016.10.17-21:00,.92,71.92,.78,73.95,.89,80.86,1.00,78.84,1.07,80.71,1.00,75.65,.91,74.79,.39,81.81,.29,84.75,.14,105.84,.16,46.95,.22,38.19,.02,90.00
2016.10.17-22:00,.91,77.55,.78,76.85,.88,83.20,1.00,79.08,1.07,80.77,1.02,74.82,.95,75.47,.43,76.21,.32,78.43,.16,98.12,.20,51.89,.25,43.49,.03,90.00
2016.10.17-23:00,.90,82.30,.78,78.81,.85,83.97,.99,77.99,1.05,79.17,1.04,73.56,.97,76.40,.48,72.91,.36,74.44,.17,93.01,.23,54.95,.26,45.90,.04,90.00
2016.10.17-24:00,.88,86.69,.77,80.18,.80,83.06,.96,75.61,1.02,76.14,1.05,72.50,.97,77.61,.52,71.48,.39,73.43,.17,90.07,.23,56.66,.26,45.89,.03,90.00
2016.10.18-01:00,.86,90.89,.77,81.59,.77,81.03,.95,72.72,1.00,72.70,1.06,72.25,.96,79.05,.53,71.35,.40,75.15,.15,88.80,.21,57.27,.23,43.59,.03,90.00
2016.10.18-02:00,.84,94.87,.77,83.32,.75,78.87,.96,70.23,1.02,69.97,1.06,72.87,.93,80.40,.53,72.36,.39,79.31,.12,89.16,.18,57.20,.19,38.90,.01,90.00
2016.10.18-03:00,.82,98.15,.78,84.93,.76,76.85,.98,68.41,1.04,68.39,1.06,73.79,.88,81.09,.51,74.32,.37,85.54,.09,92.74,.13,56.57,.15,30.41,.00,270.00
2016.10.18-04:00,.78,100.99,.77,86.69,.77,75.49,1.01,67.79,1.08,68.29,1.06,74.90,.84,81.04,.48,76.86,.34,93.40,.06,104.17,.09,54.80,.11,16.68,.01,270.00
2016.10.18-05:00,.73,104.22,.75,88.93,.78,74.96,1.04,68.65,1.11,69.65,1.05,76.14,.81,80.39,.46,79.18,.32,101.94,.05,123.70,.06,52.40,.10,4.83,.02,270.00
2016.10.18-06:00,.66,108.71,.71,91.98,.78,75.58,1.07,71.09,1.14,72.25,1.04,77.42,.79,79.33,.43,80.11,.28,109.48,.05,134.39,.06,53.44,.11,5.28,.02,270.00
2016.10.18-07:00,.59,114.18,.67,95.87,.79,77.56,1.11,74.69,1.17,75.55,1.04,78.47,.78,77.97,.41,79.13,.24,113.96,.06,130.36,.07,58.08,.12,15.61,.01,270.00
2016.10.18-08:00,.54,120.25,.65,99.89,.82,79.86,1.14,78.03,1.20,78.40,1.05,78.86,.80,76.42,.42,77.24,.21,112.77,.07,116.50,.10,60.77,.15,26.52,.00,90.00
2016.10.18-09:00,.47,131.17,.62,103.41,.83,81.42,1.16,80.14,1.20,80.12,1.05,78.55,.82,74.87,.45,75.68,.20,104.68,.09,101.62,.12,61.26,.18,33.92,.01,90.00
2016.10.18-10:00,.40,141.53,.60,105.39,.84,82.08,1.15,81.17,1.19,80.85,1.06,77.82,.86,73.47,.49,74.63,.21,92.59,.12,91.22,.15,61.27,.20,38.60,.02,90.00
2016.10.18-11:00,.34,149.05,.59,105.26,.86,82.11,1.13,81.54,1.16,80.86,1.05,76.87,.88,72.34,.53,74.24,.23,81.01,.14,84.55,.16,61.07,.21,41.24,.03,90.00
2016.10.18-12:00,.26,156.03,.57,103.39,.87,81.49,1.11,81.30,1.12,80.15,1.04,75.85,.90,71.75,.57,74.82,.25,72.77,.15,80.52,.15,60.53,.21,41.98,.03,90.00
2016.10.18-13:00,.16,166.01,.52,99.39,.86,80.02,1.08,80.33,1.09,78.91,1.03,75.03,.91,72.04,.58,76.71,.27,68.34,.14,78.92,.13,58.91,.19,39.89,.02,90.00
2016.10.18-14:00,.05,183.01,.48,92.11,.86,77.97,1.06,78.89,1.08,77.55,1.03,74.66,.92,73.14,.58,79.70,.28,66.84,.13,80.35,.10,54.59,.15,33.19,.01,90.00
2016.10.18-15:00,.07,11.79,.47,82.93,.89,76.32,1.07,77.58,1.08,76.46,1.03,74.56,.91,74.27,.55,82.90,.28,66.95,.10,86.84,.07,45.22,.12,20.76,.00,270.00
2016.10.18-16:00,.20,31.04,.52,76.45,.93,76.25,1.09,77.16,1.10,75.97,1.04,74.59,.90,74.83,.50,85.69,.27,68.38,.08,100.30,.04,24.94,.10,4.87,.01,270.00